Location: Bacharowice
(49.9333°N, 19.5833°E)
Time: 06:30:14
(UTC+00:00)

Cosmos 1908 Rocket - Pass Details

Date: 04 October 2021
Orbit: 605 x 633 km, 82.5° (Epoch: 25 October)

Event Time Altitude Azimuth Distance (km) Brightness Sun altitude
Rises 03:24:01 0° 349° (N) 2,897 7.0 -14.0°
Reaches altitude 10° 03:26:15 10° 349° (N) 1,983 6.1 -13.7°
Maximum altitude 03:30:39 86° 264° (W) 618 3.5 -13.0°
Drops below altitude 10° 03:34:59 10° 173° (S) 1,953 6.1 -12.3°
Sets 03:37:10 0° 173° (S) 2,850 7.0 -11.9°
